Retour au catalogue

TITAN 3C TRANSTAGE DEB

ActifGEO
NORAD 33509·DEBRIS·🇺🇸 United States

Lancé Sep 26, 1968 depuis Cape Canaveral Space Force Station

Loading…

TLE

FraisSource: Space-Track

Époque: Sep 14, 2026, 00:14 UTC

1 33509U 68081K   26257.01024561 -.00000082  00000-0  00000-0 0  9995
2 33509   2.0572  56.5998 0054227  15.0406 319.3987  1.02091046 80658

Suivez TITAN 3C TRANSTAGE DEB en temps réel avec AllMySat

Download on the App Store